Regional Weather Roundup
Issued by NWS Albany, NY

Home | Current Version | Previous Version | Graphics & Text | Print | Product List | Glossary On
Versions: 1 2 3 4 5 6 7 8 9 10 11 12 13 14 15 16 17 18 19 20 21 22 23 24 25 26 27 28 29 30 31 32 33 34 35 36 37 38 39 40 41 42 43 44 45 46 47 48 49 50
000
ASUS41 KALY 180910
RWRALY

NEW YORK STATE HOURLY WEATHER ROUNDUP
NATIONAL WEATHER SERVICE ALBANY NY
400 AM EST SAT NOV 18 2017

NOTE: "FAIR" INDICATES FEW OR NO CLOUDS BELOW 12,000 FEET WITH NO
SIGNIFICANT WEATHER AND/OR NO OBSTRUCTIONS TO VISIBILITY.

NYZ032-033-038>043-046>054-057>066-NYZ062>081-082-084-181000-
EAST


CITY           SKY/WX    TMP DP  RH WIND       PRES   REMARKS
ALBANY         PTCLDY    22  17  81 CALM      29.99F
GLENS FALLS    CLOUDY    18  15  88 CALM      29.97F
POUGHKEEPSIE   PTCLDY    21  17  84 CALM      30.00F
NEWBURGH       CLEAR     25  21  86 CALM      29.99F
MONTGOMERY     CLOUDY    22  19  89 CALM      29.99S
WHITE PLAINS   CLEAR     28  20  71 CALM      29.98F
ISLIP          PTCLDY    28  23  81 CALM      30.01F
NEW YORK CITY  PTCLDY    37  18  46 CALM      30.00F
CENTRAL PARK   CLEAR     36  17  46 CALM      30.02F
$$

NYZ005>009-017-018-044>046-055-056-181000-
CENTRAL


CITY           SKY/WX    TMP DP  RH WIND       PRES   REMARKS
FULTON         CLOUDY    31  23  72 SE6       29.82F WCI  25
SYRACUSE       CLOUDY    26  22  84 E9        29.84F WCI  17
ROME           CLOUDY    25  20  81 SE7       29.92F WCI  17
ELMIRA         CLOUDY    27  23  85 CALM      29.85F
BINGHAMTON     CLOUDY    26  17  68 SE6       29.85F WCI  19
MONTICELLO     CLOUDY    20  18  92 N6        29.96S WCI  12
$$

NYZ026>034-041>043-087-181000-
NORTH


CITY           SKY/WX    TMP DP  RH WIND       PRES   REMARKS
WATERTOWN      MOCLDY    29  24  82 NE5       29.82F WCI  24
FORT DRUM      NOT AVBL
OGDENSBURG     FAIR      27  23  85 E5        29.88F WCI  22
MASSENA        CLOUDY    24  21  88 E7        29.91F WCI  16
SARANAC LAKE   CLOUDY    12   9  87 CALM      29.86F
PLATTSBURGH    CLEAR     20  14  77 CALM      29.98F
$$

NYZ001>004-010>016-019>021-085-181000-
WEST


CITY           SKY/WX    TMP DP  RH WIND       PRES   REMARKS
NIAGARA FALLS  CLOUDY    39  26  59 SE5       29.69F
BUFFALO        CLOUDY    38  25  59 SE5       29.69F WCI  34
DUNKIRK        CLOUDY    49  22  34 SW18G37   29.69F
JAMESTOWN      CLOUDY    38  23  55 S9        29.72F WCI  31
WELLSVILLE     CLOUDY    40  21  46 VRB6      29.77F
ROCHESTER      CLOUDY    32  28  85 CALM      29.76F
PENN YAN       CLOUDY    39  24  55 S12G18    29.79F WCI  32
$$

             KEY
       WCI = WIND CHILL INDEX
       VSB = VISIBILITY
       HX  = HEAT INDEX
$$



USA.gov is the U.S. government's official web portal to all federal, state and local government web resources and services.